Time,TemperatureF,DewpointF,PressureIn,WindDirection,WindDirectionDegrees,WindSpeedMPH,WindSpeedGustMPH,Humidity,HourlyPrecipIn,Conditions,Clouds,dailyrainin,SoftwareType,DateUTC
2013-05-24 00:02:00,39.0,35.0,30.37,East,80,6.0,9.0,85,0.00,,,0.05,,2013-05-24 05:02:00,
2013-05-24 00:12:00,39.0,35.0,30.37,East,80,6.0,9.0,85,0.00,,,0.05,,2013-05-24 05:12:00,
2013-05-24 00:22:00,39.0,35.0,30.37,NNE,26,4.0,8.0,85,0.00,,,0.05,,2013-05-24 05:22:00,
2013-05-24 00:32:00,39.0,35.0,30.38,East,81,4.0,8.0,85,0.00,,,0.05,,2013-05-24 05:32:00,
2013-05-24 00:42:00,39.0,35.0,30.38,East,81,4.0,8.0,85,0.00,,,0.05,,2013-05-24 05:42:00,
2013-05-24 00:52:00,39.0,35.0,30.38,ENE,78,4.0,8.0,85,0.00,,,0.05,,2013-05-24 05:52:00,
2013-05-24 01:02:00,39.0,35.0,30.38,ENE,67,4.0,7.0,85,0.00,,,0.05,,2013-05-24 06:02:00,
2013-05-24 01:12:00,39.0,35.0,30.38,ENE,67,4.0,7.0,85,0.00,,,0.05,,2013-05-24 06:12:00,
2013-05-24 01:21:00,39.0,35.0,30.39,NE,56,3.0,8.0,85,0.00,,,0.05,,2013-05-24 06:21:00,
2013-05-24 01:32:00,39.0,35.0,30.38,ENE,65,4.0,7.0,85,0.00,,,0.05,,2013-05-24 06:32:00,
2013-05-24 01:41:00,39.0,35.0,30.38,ENE,65,4.0,7.0,85,0.00,,,0.05,,2013-05-24 06:41:00,
2013-05-24 01:52:00,39.0,35.0,30.37,ENE,72,4.0,8.0,86,0.00,,,0.05,,2013-05-24 06:52:00,
2013-05-24 02:01:00,38.0,34.0,30.38,ENE,71,4.0,8.0,86,0.00,,,0.05,,2013-05-24 07:01:00,
2013-05-24 02:11:00,38.0,34.0,30.38,ENE,71,4.0,8.0,86,0.00,,,0.05,,2013-05-24 07:11:00,
2013-05-24 02:22:00,38.0,34.0,30.38,NE,34,3.0,7.0,87,0.00,,,0.05,,2013-05-24 07:22:00,
2013-05-24 02:31:00,38.0,34.0,30.38,NE,34,3.0,6.0,87,0.00,,,0.05,,2013-05-24 07:31:00,
2013-05-24 02:42:00,38.0,34.0,30.38,NE,34,3.0,6.0,87,0.00,,,0.05,,2013-05-24 07:42:00,
2013-05-24 02:52:00,38.0,34.0,30.39,North,355,2.0,5.0,87,0.00,,,0.05,,2013-05-24 07:52:00,
2013-05-24 03:02:00,38.0,34.0,30.39,NNE,20,2.0,6.0,87,0.00,,,0.05,,2013-05-24 08:02:00,
2013-05-24 03:11:00,38.0,34.0,30.39,NNE,20,2.0,6.0,87,0.00,,,0.05,,2013-05-24 08:11:00,
2013-05-24 03:22:00,38.0,34.0,30.39,NE,42,5.0,7.0,87,0.00,,,0.03,,2013-05-24 08:22:00,
2013-05-24 03:32:00,38.0,34.0,30.39,NE,50,5.0,8.0,84,0.00,,,0.03,,2013-05-24 08:32:00,
2013-05-24 03:42:00,38.0,34.0,30.39,NE,50,5.0,8.0,84,0.00,,,0.03,,2013-05-24 08:42:00,
2013-05-24 03:52:00,38.0,33.0,30.40,NE,42,4.0,8.0,83,0.00,,,0.03,,2013-05-24 08:52:00,
2013-05-24 04:01:00,38.0,33.0,30.40,NE,46,5.0,8.0,82,0.00,,,0.03,,2013-05-24 09:01:00,
2013-05-24 04:11:00,38.0,33.0,30.40,NE,46,5.0,8.0,82,0.00,,,0.03,,2013-05-24 09:11:00,
2013-05-24 04:21:00,38.0,33.0,30.40,NE,36,3.0,7.0,81,0.00,,,0.02,,2013-05-24 09:21:00,
2013-05-24 04:32:00,38.0,33.0,30.40,NNE,30,4.0,6.0,81,0.00,,,0.02,,2013-05-24 09:32:00,
2013-05-24 04:42:00,38.0,33.0,30.40,NNE,30,4.0,6.0,81,0.00,,,0.02,,2013-05-24 09:42:00,
2013-05-24 04:53:00,38.0,33.0,30.42,NNW,328,2.0,6.0,81,0.00,,,0.02,,2013-05-24 09:53:00,
2013-05-24 05:02:00,38.0,33.0,30.42,North,5,3.0,6.0,81,0.00,,,0.02,,2013-05-24 10:02:00,
2013-05-24 05:12:00,38.0,33.0,30.42,North,5,3.0,6.0,81,0.00,,,0.02,,2013-05-24 10:12:00,
2013-05-24 05:22:00,38.0,32.0,30.42,NNE,32,4.0,7.0,80,0.00,,,0.02,,2013-05-24 10:22:00,
2013-05-24 05:32:00,38.0,32.0,30.42,NNE,16,4.0,7.0,79,0.00,,,0.02,,2013-05-24 10:32:00,
2013-05-24 05:42:00,38.0,32.0,30.42,NNE,16,4.0,7.0,79,0.00,,,0.02,,2013-05-24 10:42:00,
2013-05-24 05:52:00,38.0,32.0,30.43,NE,52,4.0,7.0,80,0.00,,,0.02,,2013-05-24 10:52:00,
2013-05-24 06:02:00,38.0,32.0,30.43,NNE,28,3.0,7.0,79,0.00,,,0.02,,2013-05-24 11:02:00,
2013-05-24 06:12:00,38.0,32.0,30.43,NNE,28,3.0,7.0,79,0.00,,,0.02,,2013-05-24 11:12:00,
2013-05-24 06:22:00,39.0,33.0,30.43,NE,55,3.0,7.0,78,0.00,,,0.01,,2013-05-24 11:22:00,
2013-05-24 06:32:00,40.0,33.0,30.44,NE,44,2.0,8.0,76,0.00,,,0.01,,2013-05-24 11:32:00,
2013-05-24 06:42:00,40.0,33.0,30.44,NE,44,2.0,8.0,76,0.00,,,0.01,,2013-05-24 11:42:00,
2013-05-24 06:52:00,40.0,32.0,30.44,NE,46,4.0,10.0,74,0.00,,,0.01,,2013-05-24 11:52:00,
2013-05-24 07:02:00,41.0,33.0,30.44,NE,43,4.0,9.0,74,0.00,,,0.01,,2013-05-24 12:02:00,
2013-05-24 07:11:00,41.0,33.0,30.44,NE,43,4.0,9.0,74,0.00,,,0.01,,2013-05-24 12:11:00,
2013-05-24 07:21:00,42.0,33.0,30.44,NE,55,6.0,13.0,71,0.00,,,0.01,,2013-05-24 12:21:00,
2013-05-24 07:32:00,43.0,34.0,30.45,ENE,67,5.0,11.0,70,0.00,,,0.01,,2013-05-24 12:32:00,
2013-05-24 07:42:00,43.0,34.0,30.45,ENE,67,5.0,11.0,70,0.00,,,0.01,,2013-05-24 12:42:00,
2013-05-24 07:52:00,44.0,34.0,30.47,NE,51,6.0,12.0,68,0.00,,,0.01,,2013-05-24 12:52:00,
2013-05-24 08:02:00,44.0,33.0,30.47,NNE,24,4.0,11.0,65,0.00,,,0.01,,2013-05-24 13:02:00,
2013-05-24 08:11:00,44.0,33.0,30.47,NNE,24,4.0,11.0,65,0.00,,,0.01,,2013-05-24 13:11:00,
2013-05-24 08:21:00,45.0,33.0,30.48,ENE,71,6.0,12.0,62,0.00,,,0.01,,2013-05-24 13:21:00,
2013-05-24 08:32:00,46.0,33.0,30.47,NE,43,5.0,10.0,61,0.00,,,0.01,,2013-05-24 13:32:00,
2013-05-24 08:41:00,46.0,33.0,30.47,NE,43,5.0,10.0,61,0.00,,,0.01,,2013-05-24 13:41:00,
2013-05-24 08:52:00,47.0,34.0,30.49,East,79,2.0,6.0,60,0.00,,,0.01,,2013-05-24 13:52:00,
2013-05-24 09:01:00,47.0,33.0,30.50,NNE,32,4.0,7.0,57,0.00,,,0.01,,2013-05-24 14:01:00,
2013-05-24 09:11:00,47.0,33.0,30.50,NNE,32,4.0,7.0,57,0.00,,,0.01,,2013-05-24 14:11:00,
2013-05-24 09:21:00,48.0,34.0,30.50,ENE,61,3.0,8.0,57,0.00,,,0.00,,2013-05-24 14:21:00,
2013-05-24 09:31:00,48.0,33.0,30.51,East,94,5.0,12.0,55,0.00,,,0.00,,2013-05-24 14:31:00,
2013-05-24 09:42:00,48.0,33.0,30.51,East,94,5.0,12.0,55,0.00,,,0.00,,2013-05-24 14:42:00,
2013-05-24 09:52:00,49.0,33.0,30.51,NNE,13,6.0,9.0,54,0.00,,,0.00,,2013-05-24 14:52:00,
2013-05-24 10:02:00,50.0,34.0,30.51,ENE,59,4.0,12.0,54,0.00,,,0.00,,2013-05-24 15:02:00,
2013-05-24 10:11:00,50.0,34.0,30.51,ENE,59,4.0,12.0,54,0.00,,,0.00,,2013-05-24 15:11:00,
2013-05-24 10:21:00,50.0,33.0,30.50,East,95,6.0,10.0,52,0.00,,,0.00,,2013-05-24 15:21:00,
2013-05-24 10:32:00,50.0,34.0,30.50,East,90,4.0,9.0,53,0.00,,,0.00,,2013-05-24 15:32:00,
2013-05-24 10:43:00,50.0,34.0,30.50,East,90,4.0,9.0,53,0.00,,,0.00,,2013-05-24 15:43:00,
2013-05-24 10:52:00,51.0,34.0,30.50,NE,56,5.0,9.0,51,0.00,,,0.00,,2013-05-24 15:52:00,
2013-05-24 11:03:00,52.0,35.0,30.48,NNE,14,1.0,8.0,53,0.00,,,0.00,,2013-05-24 16:03:00,
2013-05-24 11:12:00,52.0,35.0,30.48,NNE,14,1.0,8.0,53,0.00,,,0.00,,2013-05-24 16:12:00,
2013-05-24 11:22:00,52.0,34.0,30.48,NE,51,5.0,10.0,50,0.00,,,0.00,,2013-05-24 16:22:00,
2013-05-24 11:32:00,52.0,34.0,30.49,East,100,1.0,10.0,50,0.00,,,0.00,,2013-05-24 16:32:00,
2013-05-24 11:42:00,52.0,34.0,30.49,East,100,1.0,10.0,50,0.00,,,0.00,,2013-05-24 16:42:00,
2013-05-24 11:52:00,53.0,34.0,30.49,NE,36,4.0,9.0,48,0.00,,,0.00,,2013-05-24 16:52:00,
2013-05-24 12:02:00,53.0,34.0,30.48,West,263,2.0,5.0,49,0.00,,,0.00,,2013-05-24 17:02:00,
2013-05-24 12:12:00,53.0,34.0,30.48,West,263,2.0,5.0,49,0.00,,,0.00,,2013-05-24 17:12:00,
2013-05-24 12:22:00,54.0,35.0,30.48,ENE,70,2.0,7.0,49,0.00,,,0.00,,2013-05-24 17:22:00,
2013-05-24 12:32:00,54.0,34.0,30.48,NNW,342,1.0,7.0,47,0.00,,,0.00,,2013-05-24 17:32:00,
2013-05-24 12:41:00,54.0,34.0,30.48,NNW,342,1.0,7.0,47,0.00,,,0.00,,2013-05-24 17:41:00,
2013-05-24 12:52:00,55.0,35.0,30.47,NW,309,1.0,9.0,47,0.00,,,0.00,,2013-05-24 17:52:00,
2013-05-24 13:01:00,56.0,36.0,30.47,NE,39,4.0,9.0,46,0.00,,,0.00,,2013-05-24 18:01:00,
2013-05-24 13:11:00,56.0,36.0,30.47,NE,39,4.0,9.0,46,0.00,,,0.00,,2013-05-24 18:11:00,
2013-05-24 13:21:00,56.0,36.0,30.47,NNE,29,0.0,6.0,47,0.00,,,0.00,,2013-05-24 18:21:00,
2013-05-24 13:32:00,56.0,34.0,30.47,NNE,25,6.0,9.0,44,0.00,,,0.00,,2013-05-24 18:32:00,
2013-05-24 13:41:00,56.0,34.0,30.47,NNE,25,6.0,9.0,44,0.00,,,0.00,,2013-05-24 18:41:00,
2013-05-24 13:52:00,57.0,35.0,30.46,North,355,3.0,9.0,43,0.00,,,0.00,,2013-05-24 18:52:00,
2013-05-24 14:01:00,57.0,35.0,30.45,NNE,32,1.0,9.0,44,0.00,,,0.00,,2013-05-24 19:01:00,
2013-05-24 14:11:00,57.0,35.0,30.45,NNE,32,1.0,9.0,44,0.00,,,0.00,,2013-05-24 19:11:00,
2013-05-24 14:21:00,58.0,35.0,30.45,SE,128,1.0,6.0,42,0.00,,,0.00,,2013-05-24 19:21:00,
2013-05-24 14:32:00,59.0,38.0,30.45,East,87,1.0,8.0,45,0.00,,,0.00,,2013-05-24 19:32:00,
2013-05-24 14:41:00,59.0,38.0,30.45,East,87,1.0,8.0,45,0.00,,,0.00,,2013-05-24 19:41:00,
2013-05-24 14:52:00,58.0,40.0,30.45,ESE,122,4.0,12.0,51,0.00,,,0.00,,2013-05-24 19:52:00,
2013-05-24 15:02:00,56.0,39.0,30.44,ESE,113,7.0,14.0,52,0.00,,,0.00,,2013-05-24 20:02:00,
2013-05-24 15:11:00,56.0,39.0,30.44,ESE,113,7.0,14.0,52,0.00,,,0.00,,2013-05-24 20:11:00,
2013-05-24 15:21:00,56.0,39.0,30.44,East,79,4.0,14.0,53,0.00,,,0.00,,2013-05-24 20:21:00,
2013-05-24 15:32:00,55.0,37.0,30.43,SE,130,5.0,13.0,51,0.00,,,0.00,,2013-05-24 20:32:00,
2013-05-24 15:41:00,55.0,37.0,30.43,SE,130,5.0,13.0,51,0.00,,,0.00,,2013-05-24 20:41:00,
2013-05-24 15:52:00,56.0,39.0,30.43,East,86,4.0,12.0,52,0.00,,,0.00,,2013-05-24 20:52:00,
2013-05-24 16:01:00,55.0,38.0,30.43,ESE,117,6.0,13.0,52,0.00,,,0.00,,2013-05-24 21:01:00,
2013-05-24 16:11:00,55.0,38.0,30.43,ESE,117,6.0,13.0,52,0.00,,,0.00,,2013-05-24 21:11:00,
2013-05-24 16:21:00,55.0,38.0,30.42,ENE,64,2.0,13.0,52,0.00,,,0.00,,2013-05-24 21:21:00,
2013-05-24 16:32:00,54.0,36.0,30.42,SE,125,9.0,13.0,51,0.00,,,0.00,,2013-05-24 21:32:00,
2013-05-24 16:42:00,54.0,36.0,30.42,SE,125,9.0,13.0,51,0.00,,,0.00,,2013-05-24 21:42:00,
2013-05-24 16:53:00,54.0,37.0,30.41,East,80,5.0,14.0,52,0.00,,,0.00,,2013-05-24 21:53:00,
2013-05-24 17:02:00,54.0,36.0,30.40,ESE,104,8.0,13.0,51,0.00,,,0.00,,2013-05-24 22:02:00,
2013-05-24 17:12:00,54.0,36.0,30.40,ESE,104,8.0,13.0,51,0.00,,,0.00,,2013-05-24 22:12:00,
2013-05-24 17:22:00,54.0,37.0,30.40,ENE,68,3.0,11.0,52,0.00,,,0.00,,2013-05-24 22:22:00,
2013-05-24 17:33:00,54.0,38.0,30.40,ESE,110,3.0,10.0,54,0.00,,,0.00,,2013-05-24 22:33:00,
2013-05-24 17:42:00,54.0,38.0,30.40,ESE,110,3.0,10.0,54,0.00,,,0.00,,2013-05-24 22:42:00,
2013-05-24 17:52:00,54.0,38.0,30.40,ENE,67,3.0,10.0,54,0.00,,,0.00,,2013-05-24 22:52:00,
2013-05-24 18:02:00,53.0,36.0,30.40,SE,126,6.0,10.0,53,0.00,,,0.00,,2013-05-24 23:02:00,
2013-05-24 18:11:00,53.0,36.0,30.40,SE,126,6.0,10.0,53,0.00,,,0.00,,2013-05-24 23:11:00,
2013-05-24 18:22:00,52.0,36.0,30.40,ESE,121,4.0,11.0,55,0.00,,,0.00,,2013-05-24 23:22:00,
2013-05-24 18:32:00,51.0,36.0,30.40,ESE,116,5.0,10.0,56,0.00,,,0.00,,2013-05-24 23:32:00,
2013-05-24 18:42:00,51.0,36.0,30.40,ESE,116,5.0,10.0,56,0.00,,,0.00,,2013-05-24 23:42:00,
2013-05-24 18:52:00,51.0,37.0,30.39,SE,135,2.0,9.0,58,0.00,,,0.00,,2013-05-24 23:52:00,
2013-05-24 19:01:00,50.0,36.0,30.40,ENE,74,4.0,9.0,58,0.00,,,0.00,,2013-05-25 00:01:00,
2013-05-24 19:11:00,50.0,36.0,30.40,ENE,74,4.0,9.0,58,0.00,,,0.00,,2013-05-25 00:11:00,
2013-05-24 19:21:00,50.0,36.0,30.40,ENE,78,6.0,11.0,58,0.00,,,0.00,,2013-05-25 00:21:00,
2013-05-24 19:32:00,49.0,35.0,30.40,East,99,4.0,9.0,59,0.00,,,0.00,,2013-05-25 00:32:00,
2013-05-24 19:41:00,49.0,35.0,30.40,East,99,4.0,9.0,59,0.00,,,0.00,,2013-05-25 00:41:00,
2013-05-24 19:52:00,49.0,36.0,30.40,ENE,74,3.0,8.0,60,0.00,,,0.00,,2013-05-25 00:52:00,
2013-05-24 20:01:00,48.0,35.0,30.40,East,90,3.0,10.0,60,0.00,,,0.00,,2013-05-25 01:01:00,
2013-05-24 20:11:00,48.0,35.0,30.40,East,90,3.0,10.0,60,0.00,,,0.00,,2013-05-25 01:11:00,
2013-05-24 20:22:00,46.0,32.0,30.41,East,81,5.0,10.0,58,0.00,,,0.00,,2013-05-25 01:22:00,
2013-05-24 20:32:00,46.0,32.0,30.42,NE,53,4.0,9.0,58,0.00,,,0.00,,2013-05-25 01:32:00,
2013-05-24 20:41:00,46.0,32.0,30.42,NE,53,4.0,9.0,58,0.00,,,0.00,,2013-05-25 01:41:00,
2013-05-24 20:52:00,45.0,31.0,30.42,East,88,3.0,8.0,58,0.00,,,0.00,,2013-05-25 01:52:00,
2013-05-24 21:01:00,45.0,31.0,30.42,ENE,72,2.0,7.0,58,0.00,,,0.00,,2013-05-25 02:01:00,
2013-05-24 21:11:00,45.0,31.0,30.42,ENE,72,2.0,7.0,58,0.00,,,0.00,,2013-05-25 02:11:00,
2013-05-24 21:21:00,44.0,31.0,30.43,East,92,2.0,6.0,61,0.00,,,0.00,,2013-05-25 02:21:00,
2013-05-24 21:31:00,44.0,31.0,30.43,East,92,3.0,5.0,60,0.00,,,0.00,,2013-05-25 02:31:00,
2013-05-24 21:42:00,44.0,31.0,30.43,East,92,3.0,5.0,60,0.00,,,0.00,,2013-05-25 02:42:00,
2013-05-24 21:52:00,44.0,31.0,30.42,East,84,1.0,4.0,61,0.00,,,0.00,,2013-05-25 02:52:00,
2013-05-24 22:01:00,44.0,32.0,30.43,East,82,0.0,3.0,63,0.00,,,0.00,,2013-05-25 03:01:00,
2013-05-24 22:11:00,44.0,32.0,30.43,East,82,0.0,3.0,63,0.00,,,0.00,,2013-05-25 03:11:00,
2013-05-24 22:21:00,44.0,32.0,30.44,East,88,1.0,2.0,62,0.00,,,0.00,,2013-05-25 03:21:00,
2013-05-24 22:32:00,44.0,32.0,30.43,East,88,1.0,2.0,62,0.00,,,0.00,,2013-05-25 03:32:00,
2013-05-24 22:43:00,44.0,32.0,30.43,East,88,1.0,2.0,62,0.00,,,0.00,,2013-05-25 03:43:00,
2013-05-24 22:53:00,44.0,32.0,30.43,ESE,103,1.0,2.0,63,0.00,,,0.00,,2013-05-25 03:53:00,
2013-05-24 23:02:00,44.0,33.0,30.43,East,100,2.0,2.0,64,0.00,,,0.00,,2013-05-25 04:02:00,
2013-05-24 23:12:00,44.0,33.0,30.43,East,100,2.0,2.0,64,0.00,,,0.00,,2013-05-25 04:12:00,
2013-05-24 23:23:00,44.0,32.0,30.44,East,84,1.0,2.0,62,0.00,,,0.00,,2013-05-25 04:23:00,
2013-05-24 23:33:00,44.0,32.0,30.44,East,84,0.0,2.0,62,0.00,,,0.00,,2013-05-25 04:33:00,
2013-05-24 23:43:00,44.0,32.0,30.44,East,84,0.0,2.0,62,0.00,,,0.00,,2013-05-25 04:43:00,
2013-05-24 23:53:00,44.0,32.0,30.43,East,89,0.0,2.0,63,0.00,,,0.00,,2013-05-25 04:53:00,